Roanoke, VA

9:46 PM EST on December 04, 2016 (GMT -0500)
Roanoke Regional-Woodrum

Weather History for KROA - February, 2011

Change the Weather History Date:

Thursday, February 17, 2011

  Actual Average Record
Temperature  
Mean Temperature 55 °F 40 °F  
Max Temperature 71 °F 50 °F 72 °F (1927)
Min Temperature 39 °F 30 °F 3 °F (1958)
Degree Days  
Heating Degree Days 10 25  
Month to date heating degree days 424 451  
Since 1 July heating degree days 3097 2943  
Cooling Degree Days 0 0  
Month to date cooling degree days 0 0  
Year to date cooling degree days 0 0  
Growing Degree Days 6 (Base 50)    
Moisture  
Dew Point 37 °F    
Average Humidity 61    
Maximum Humidity 93    
Minimum Humidity 28    
Precipitation  
Precipitation 0.00 in 0.11 in 1.72 in (1998)
Month to date precipitation 0.35 1.77  
Year to date precipitation 1.17 4.69  
Snow  
Snow 0.00 in - - ()
Month to date snowfall 0.6  
Since 1 July snowfall 10.2  
Snow Depth 0.00 in    
Sea Level Pressure  
Sea Level Pressure 30.16 in    
Wind  
Wind Speed 6 mph (SW)    
Max Wind Speed 18 mph    
Max Gust Speed 23 mph    
Visibility 10 miles    
Events      
T = Trace of Precipitation, MM = Missing Value Source: NWS Daily Summary

Daily Weather History Graph

Daily Weather History Graph

Search for Another Location

Airport or City:

Trip Planner

Search our weather history database for the weather conditions in past years. The results will help you decide how hot, cold, wet, or windy it might be!

Date:

Astronomy

Feb. 17, 2011 Rise Set
Actual Time 7:06 AM EST 6:01 PM EST
Civil Twilight 6:40 AM EST 6:28 PM EST
Nautical Twilight 6:09 AM EST 6:58 PM EST
Astronomical Twilight 5:39 AM EST 7:28 PM EST
Moon 5:36 PM EST (2/17) 6:19 AM EST (2/17)
Length of Visible Light 11h 47m
Length of Day
10h 54m
Waxing Gibbous, 99% of the Moon is Illuminated
Feb 17
Waxing Gibbous
Feb 18
Full
Feb 24
Last Quarter
Mar 4
New
Mar 12
First Quarter

Hourly Weather History & Observations

Time (EST) Temp. Windchill Dew Point Humidity Pressure Visibility Wind Dir Wind Speed Gust Speed Precip Events Conditions
12:54 AM 45.0 °F - 28.0 °F 52% 30.27 in 10.0 mi Calm Calm - N/A   Overcast
1:54 AM 44.1 °F - 28.9 °F 55% 30.26 in 10.0 mi Calm Calm - N/A   Overcast
2:54 AM 45.0 °F - 28.9 °F 53% 30.25 in 10.0 mi Calm Calm - N/A   Overcast
3:54 AM 46.0 °F 44.8 °F 30.9 °F 56% 30.25 in 10.0 mi NW 3.5 mph - N/A   Overcast
4:54 AM 44.1 °F - 30.0 °F 58% 30.24 in 10.0 mi Calm Calm - N/A   Overcast
5:54 AM 41.0 °F - 28.9 °F 62% 30.25 in 10.0 mi Calm Calm - N/A   Partly Cloudy
6:54 AM 41.0 °F 38.0 °F 30.2 °F 65% 30.24 in 10.0 mi ENE 4.6 mph - N/A   Partly Cloudy
7:54 AM 43.0 °F 41.3 °F 32.0 °F 65% 30.26 in 10.0 mi NNE 3.5 mph - N/A   Clear
8:54 AM 48.2 °F - 33.8 °F 58% 30.26 in 10.0 mi Calm Calm - N/A   Clear
9:54 AM 54.0 °F - 37.0 °F 53% 30.26 in 10.0 mi WSW 6.9 mph - N/A   Clear
10:54 AM 60.1 °F - 37.9 °F 44% 30.24 in 10.0 mi WSW 13.8 mph 18.4 mph N/A   Clear
11:54 AM 64.0 °F - 37.0 °F 37% 30.21 in 10.0 mi WSW 16.1 mph 20.7 mph N/A   Clear
12:54 PM 66.9 °F - 36.0 °F 32% 30.16 in 10.0 mi West 10.4 mph 19.6 mph N/A   Clear
1:54 PM 69.1 °F - 36.0 °F 30% 30.11 in 10.0 mi West 9.2 mph - N/A   Clear
2:54 PM 70.0 °F - 36.0 °F 29% 30.08 in 10.0 mi West 5.8 mph - N/A   Clear
3:54 PM 70.0 °F - 36.0 °F 29% 30.06 in 10.0 mi SSW 5.8 mph - N/A   Clear
4:54 PM 68.0 °F - 39.9 °F 36% 30.06 in 10.0 mi SSW 13.8 mph 21.9 mph N/A   Clear
5:54 PM 64.9 °F - 42.1 °F 43% 30.07 in 10.0 mi SSW 8.1 mph - N/A   Clear
6:54 PM 62.1 °F - 45.0 °F 53% 30.09 in 10.0 mi South 6.9 mph - N/A   Clear
7:54 PM 61.0 °F - 45.0 °F 56% 30.08 in 10.0 mi SSW 11.5 mph - N/A   Clear
8:54 PM 61.0 °F - 45.0 °F 56% 30.07 in 10.0 mi SSW 8.1 mph 19.6 mph N/A   Clear
9:54 PM 57.0 °F - 45.0 °F 64% 30.06 in 10.0 mi Calm Calm - N/A   Clear
10:54 PM 55.9 °F - 44.1 °F 64% 30.04 in 10.0 mi SW 3.5 mph - N/A   Clear
11:54 PM 57.0 °F - 44.1 °F 62% 30.01 in 10.0 mi West 4.6 mph - N/A   Clear